Stations météo

réclame
Mon MeteoGroup
Pershore, Grande-Bretagne (3529): Température de l'air & dewpoint: 18.10.2018 06:00:00 - 24.10.2018 06:00:00 (BST)Pershore, Grande-Bretagne (3529): Température de l'air -20cm & Température de l'air -100cm: 18.10.2018 06:00:00 - 24.10.2018 06:00:00 (BST)Pershore, Grande-Bretagne (3529): Vitesse du vent: 18.10.2018 06:00:00 - 24.10.2018 06:00:00 (BST)Pershore, Grande-Bretagne (3529): Direction du vent: 18.10.2018 06:00:00 - 24.10.2018 06:00:00 (BST)Pershore, Grande-Bretagne (3529): reduced air pressure: 18.10.2018 06:00:00 - 24.10.2018 06:00:00 (BST)Pershore, Grande-Bretagne (3529): visibility: 18.10.2018 06:00:00 - 24.10.2018 06:00:00 (BST)Pershore, Grande-Bretagne (3529): Quantités de précipitations: 18.10.2018 06:00:00 - 24.10.2018 06:00:00 (BST)
Date & Time tt [°C] td [°C] tt -20cm [°C] tt -100cm [°C] ff [km/h] ff [knt] dd ppp [hPa] vv [km] rr [mm]
24.10.2018 06:00:00 - - - - - - - - - 0,0
24.10.2018 05:00:00 12,0 10,1 - - 9 5 W 1030,7 22 0,0
24.10.2018 04:00:00 11,9 9,9 - - 11 6 W 1031,0 20 0,0
24.10.2018 03:00:00 12,5 10,0 - - 15 8 W 1031,2 19 0,0
24.10.2018 02:00:00 13,1 10,4 - - 9 5 W 1031,4 25 0,0
24.10.2018 01:00:00 12,3 9,6 - - 16 9 W 1031,5 22 0,0
24.10.2018 00:00:00 12,0 9,2 - - 11 6 W 1032,1 23 0,0
23.10.2018 23:00:00 12,2 9,0 - - 8 4 W 1031,9 22 0,0
23.10.2018 22:00:00 11,5 9,2 - - 13 7 WNW 1031,9 22 0,0
23.10.2018 21:00:00 11,5 8,8 - - 13 7 W 1031,6 25 0,0
23.10.2018 20:00:00 11,5 8,4 - - 8 4 W 1031,6 22 0,0
23.10.2018 19:00:00 12,7 9,3 - - 11 6 W 1031,3 28 0,0
23.10.2018 18:00:00 13,0 9,2 - - 11 6 WNW 1030,8 17 0,0
23.10.2018 17:00:00 14,4 9,7 - - 11 6 WNW 1031,0 19 0,0
23.10.2018 16:00:00 15,1 9,4 - - 11 6 WNW 1031,2 21 0,0
23.10.2018 15:00:00 17,3 9,5 - - 13 7 WNW 1031,3 15 0,0
23.10.2018 14:00:00 16,3 8,8 - - 9 5 WNW 1031,2 19 0,0
23.10.2018 13:00:00 13,7 8,0 - - 18 10 W 1031,4 30 0,0
23.10.2018 12:00:00 13,3 8,5 - - 18 10 W 1032,0 28 0,0
23.10.2018 11:00:00 11,7 7,2 - - 13 7 W 1032,6 28 0,0
23.10.2018 10:00:00 9,5 6,6 11,4 13,9 8 4 SW 1032,7 15 0,0
23.10.2018 09:00:00 7,2 6,0 - - 8 4 WSW 1032,6 17 0,0
23.10.2018 08:00:00 6,5 5,2 - - 4 2 SSW 1033,1 20 0,0
23.10.2018 07:00:00 6,4 5,4 - - 8 4 SSW 1033,5 19 0,0
23.10.2018 06:00:00 6,8 5,6 - - 5 3 W 1033,6 17 0,0
23.10.2018 05:00:00 6,5 5,2 - - 5 3 SW 1034,1 20 0,0
23.10.2018 04:00:00 7,3 5,2 - - 8 4 SW 1034,5 21 0,0
23.10.2018 03:00:00 6,7 5,5 - - 9 5 WSW 1035,1 21 0,0
23.10.2018 02:00:00 5,7 4,3 - - 5 3 SW 1036,2 20 0,0
23.10.2018 01:00:00 5,0 3,6 - - 5 3 SW 1037,2 16 0,0
23.10.2018 00:00:00 5,3 3,5 - - 5 3 WSW 1037,6 20 0,0
22.10.2018 23:00:00 5,9 3,9 - - 8 4 SW 1038,3 19 0,0
22.10.2018 22:00:00 7,1 4,3 - - 8 4 W 1038,3 17 0,0
22.10.2018 21:00:00 7,5 4,4 - - 9 5 W 1038,7 19 0,0
22.10.2018 20:00:00 6,5 2,5 - - 8 4 SW 1038,8 14 0,0
22.10.2018 19:00:00 6,4 2,7 - - 2 1 SW 1038,6 30 0,0
22.10.2018 18:00:00 9,9 4,2 - - 8 4 NW 1038,4 30 0,0
22.10.2018 17:00:00 13,0 5,0 - - 13 7 NW 1038,5 23 0,0
22.10.2018 16:00:00 14,3 6,2 - - 13 7 NW 1038,5 16 0,0
22.10.2018 15:00:00 14,2 6,5 - - 15 8 NW 1039,1 22 0,0
22.10.2018 14:00:00 13,5 6,3 - - 13 7 NNW 1039,0 16 0,0
22.10.2018 13:00:00 13,3 6,0 - - 15 8 NNW 1039,6 18 0,0
22.10.2018 12:00:00 12,3 4,2 - - 13 7 N 1039,6 16 0,0
22.10.2018 11:00:00 10,6 7,0 - - 11 6 NNW 1039,5 10 0,0
22.10.2018 10:00:00 7,4 6,3 12,0 14,0 4 2 WNW 1039,3 21 0,0
22.10.2018 09:00:00 3,1 3,0 - - 2 1 N 1039,1 12 0,0
22.10.2018 08:00:00 0,8 0,6 - - 4 2 NNE 1038,2 16 0,0
22.10.2018 07:00:00 0,2 -0,2 - - 2 1 ESE 1037,4 12 0,0
22.10.2018 06:00:00 1,9 1,6 - - 4 2 NNW 1036,8 14 0,0
22.10.2018 05:00:00 0,7 0,1 - - 4 2 ENE 1036,3 11 0,0
22.10.2018 04:00:00 1,5 0,8 - - 2 1 NNE 1035,9 16 0,0
22.10.2018 03:00:00 3,1 2,5 - - 4 2 N 1035,6 13 0,0
22.10.2018 02:00:00 3,8 2,3 - - 2 1 WSW 1034,8 17 0,0
22.10.2018 01:00:00 7,0 5,1 - - 4 2 N 1034,2 20 0,0
22.10.2018 00:00:00 8,5 5,9 - - 8 4 N 1033,7 22 0,0
21.10.2018 23:00:00 10,5 7,6 - - 15 8 NNW 1033,0 22 0,0
21.10.2018 22:00:00 11,4 9,0 - - 11 6 NNW 1032,0 45 0,0
21.10.2018 21:00:00 11,7 9,0 - - 9 5 NNW 1031,5 35 0,0
21.10.2018 20:00:00 12,6 9,0 - - 16 9 NNW 1030,6 50 0,0
21.10.2018 19:00:00 13,1 10,4 - - 18 10 NNW 1029,5 30 0,0
21.10.2018 18:00:00 15,8 12,0 - - 11 6 NW 1028,0 18 0,0
21.10.2018 17:00:00 16,5 11,5 - - 9 5 W 1027,3 40 0,0
21.10.2018 16:00:00 16,9 11,1 - - 11 6 W 1027,1 15 0,0
21.10.2018 15:00:00 18,1 10,1 - - 11 6 W 1026,9 22 0,0
21.10.2018 14:00:00 17,3 10,4 - - 13 7 WSW 1027,0 35 0,0
21.10.2018 13:00:00 16,2 11,2 - - 11 6 WSW 1027,6 21 0,0
21.10.2018 12:00:00 14,6 11,5 - - 11 6 SSW 1027,9 20 0,0
21.10.2018 11:00:00 12,8 11,6 - - 11 6 SW 1028,2 11 0,0
21.10.2018 10:00:00 10,9 10,9 11,9 14,0 5 3 SW 1028,5 7 0,0
21.10.2018 09:00:00 9,4 9,4 - - 9 5 SSW 1028,7 0,2 0,0
21.10.2018 08:00:00 9,6 9,5 - - 9 5 SSW 1028,5 0,2 0,2
21.10.2018 07:00:00 9,4 9,4 - - 9 5 SW 1028,4 0,1 0,0
21.10.2018 06:00:00 8,8 8,7 - - 11 6 SW 1028,3 0,1 0,0
21.10.2018 05:00:00 8,9 8,8 - - 8 4 SW 1028,4 1,6 0,0
21.10.2018 04:00:00 9,6 9,5 - - 9 5 SW 1028,7 2,8 0,0
21.10.2018 03:00:00 9,3 9,3 - - 5 3 SSW 1029,3 1,9 0,0
21.10.2018 02:00:00 6,9 6,7 - - 8 4 SW 1029,7 0,2 0,0
21.10.2018 01:00:00 6,8 6,5 - - 4 2 SW 1030,2 0,1 0,0
21.10.2018 00:00:00 7,9 7,5 - - 2 1 N 1030,4 0,2 0,0
20.10.2018 23:00:00 9,1 8,5 - - 4 2 WSW 1030,6 2,4 0,0
20.10.2018 22:00:00 8,8 8,1 - - 8 4 S 1030,8 4,5 0,0
20.10.2018 21:00:00 10,1 8,9 - - 4 2 SSW 1031,1 4,0 0,0
20.10.2018 20:00:00 12,1 11,2 - - 8 4 SSW 1031,1 5 0,0
20.10.2018 19:00:00 11,3 10,1 - - 4 2 SW 1030,9 5 0,0
20.10.2018 18:00:00 14,2 11,9 - - 5 3 SSW 1030,4 11 0,0
20.10.2018 17:00:00 15,5 12,0 - - 5 3 WSW 1030,5 13 0,0
20.10.2018 16:00:00 14,8 11,8 - - 8 4 WSW 1031,3 13 0,0
20.10.2018 15:00:00 14,3 11,8 - - 8 4 SW 1031,1 9 0,0
20.10.2018 14:00:00 13,9 11,1 - - 15 8 SSW 1031,2 15 0,0
20.10.2018 13:00:00 13,8 11,2 - - 11 6 SW 1032,0 16 0,0
20.10.2018 12:00:00 12,7 10,2 - - 13 7 SSW 1032,2 13 0,0
20.10.2018 11:00:00 10,5 10,4 - - 8 4 WSW 1032,5 5 0,0
20.10.2018 10:00:00 9,1 9,1 12,0 14,2 5 3 S 1032,3 2,7 0,0
20.10.2018 09:00:00 6,6 6,5 - - 2 1 S 1031,9 1,5 0,0
20.10.2018 08:00:00 5,2 5,0 - - 2 1 S 1031,4 2,2 0,0
20.10.2018 07:00:00 4,6 4,5 - - 2 1 W 1031,2 5 0,0
20.10.2018 06:00:00 4,3 4,1 - - 2 1 NNE 1030,9 6 0,0
20.10.2018 05:00:00 4,3 4,1 - - 4 2 W 1030,5 3,3 0,0
20.10.2018 04:00:00 4,5 4,3 - - 4 2 N 1030,2 4,9 0,0
20.10.2018 03:00:00 4,1 3,9 - - 2 1 W 1029,6 3,7 0,0
20.10.2018 02:00:00 4,0 3,7 - - 2 1 E 1029,9 5 0,0
20.10.2018 01:00:00 4,6 4,3 - - 2 1 SSE 1029,7 5 0,0
20.10.2018 00:00:00 5,1 4,7 - - 2 1 S 1029,7 4,8 0,0
19.10.2018 23:00:00 5,2 4,6 - - 2 1 N 1029,3 5 0,0
19.10.2018 22:00:00 6,2 5,6 - - 4 2 ENE 1029,1 11 0,0
19.10.2018 21:00:00 7,3 6,2 - - 2 1 WNW 1028,5 10 0,0
19.10.2018 20:00:00 8,4 6,6 - - 8 4 S 1028,0 16 0,0
19.10.2018 19:00:00 9,4 7,1 - - 0 0 N 1028,2 16 0,0
19.10.2018 18:00:00 13,3 7,9 - - 5 3 W 1027,1 22 0,0
19.10.2018 17:00:00 15,2 8,7 - - 4 2 WSW 1026,9 30 0,0
19.10.2018 16:00:00 15,8 8,9 - - 4 2 WNW 1026,6 30 0,0
19.10.2018 15:00:00 14,9 8,3 - - 8 4 W 1026,5 27 0,0
19.10.2018 14:00:00 14,5 8,6 - - 8 4 WSW 1026,9 30 0,0
19.10.2018 13:00:00 13,3 8,2 - - 5 3 WSW 1027,5 19 0,0
19.10.2018 12:00:00 11,0 7,8 - - 2 1 SSE 1027,6 14 0,0
19.10.2018 11:00:00 7,4 7,3 - - 4 2 WNW 1027,8 8 0,0
19.10.2018 10:00:00 4,7 4,7 12,4 14,2 4 2 SSE 1027,4 5 0,0
19.10.2018 09:00:00 2,3 2,3 - - 2 1 SSE 1027,4 4,7 0,0
19.10.2018 08:00:00 1,0 0,9 - - 2 1 W 1027,1 0,2 0,0
19.10.2018 07:00:00 0,1 -0,1 - - 2 1 N 1027,0 0,1 0,0
19.10.2018 06:00:00 0,5 0,3 - - 2 1 NNW 1026,9 1,0 0,0
19.10.2018 05:00:00 0,5 0,3 - - 2 1 W 1027,2 4,6 0,0
19.10.2018 04:00:00 0,8 0,5 - - 2 1 N 1027,3 2,1 0,0
19.10.2018 03:00:00 1,0 0,7 - - 0 0 N 1027,3 6 0,0
19.10.2018 02:00:00 1,9 1,6 - - 2 1 NNE 1027,7 6 0,0
19.10.2018 01:00:00 2,2 1,8 - - 2 1 N 1028,1 7 0,0
19.10.2018 00:00:00 3,1 2,8 - - 4 2 NW 1027,9 6 0,0
18.10.2018 23:00:00 3,6 3,1 - - 2 1 NNE 1027,7 3,5 0,0
18.10.2018 22:00:00 4,7 4,2 - - 4 2 N 1027,7 5 0,0
18.10.2018 21:00:00 5,7 5,1 - - 8 4 E 1027,7 9 0,0
18.10.2018 20:00:00 5,9 4,5 - - 4 2 E 1027,6 11 0,0
18.10.2018 19:00:00 8,6 6,1 - - 2 1 NNE 1027,6 11 0,0
18.10.2018 18:00:00 11,9 7,9 - - 4 2 NNE 1027,5 21 0,0
18.10.2018 17:00:00 12,9 8,4 - - 5 3 ENE 1027,6 25 0,0
18.10.2018 16:00:00 13,2 8,8 - - 8 4 ENE 1027,8 22 0,0
18.10.2018 15:00:00 13,2 8,8 - - 5 3 N 1028,2 14 0,0
18.10.2018 14:00:00 12,7 8,8 - - 5 3 NE 1028,5 6 0,0
18.10.2018 13:00:00 12,5 8,7 - - 8 4 NE 1029,0 30 0,0
18.10.2018 12:00:00 12,5 8,8 - - 4 2 NW 1029,2 18 0,0
18.10.2018 11:00:00 9,8 8,9 - - 4 2 NW 1029,5 14 0,0
18.10.2018 10:00:00 8,3 8,2 13,2 14,4 4 2 NNW 1029,3 10 0,0
18.10.2018 09:00:00 6,7 6,7 - - 2 1 N 1029,0 4,6 0,0
18.10.2018 08:00:00 5,3 5,2 - - 2 1 NNW 1028,7 4,9 0,0
18.10.2018 07:00:00 4,2 4,1 - - 2 1 NW 1028,2 4,0 0,0
18.10.2018 06:00:00 4,4 4,2 - - 2 1 NE 1027,8 5 0,0

tt = Température de l'air
td = dewpoint
tt -20cm = Température de l'air -20cm
tt -100cm = Température de l'air -100cm
ff = Vitesse du vent
dd = Direction du vent
ppp = reduced air pressure
vv = visibility
rr = Quantités de précipitations

stations d'obs. à proximité